Home   Weather   Rendsburg   Past weeks

Flag for Germany Past Weather in Rendsburg, Schleswig-Holstein, Germany — Yesterday and Last 2 Weeks

Now
32 °F

Partly cloudy.


Feels Like: 32 °F
Forecast: 30 / 34 °F
Wind: 2 mph from Southwest

Location: Hohn

Current Time: Jan 17, 2017 at 6:33:43 pm

Latest Report: Jan 17, 2017 at 5:20 pm


Visibility: N/A

Pressure: 30.66 "Hg

Humidity: 87%

Dew Point: 28 °F

Location of RendsburgLocation

Past Weather in Rendsburg — Graph

°F

Rendsburg Temperature Yesterday

Maximum temperature yesterday: 34 °F (at 1:20 pm)
Minimum temperature yesterday: 18 °F (at 8:20 am)
Average temperature yesterday: 24 °F

High & Low Weather Summary for the Past Weeks

 TemperatureHumidityPressure
High46 °F (Jan 3, 9:20 pm)100% (Jan 7, 3:20 pm)30.77 "Hg (Jan 7, 3:20 pm)
Low12 °F (Jan 6, 5:20 am)54% (Jan 6, 2:20 pm)29.15 "Hg (Jan 13, 4:20 am)
Average33 °F84%29.95 "Hg
* Reported Jan 2 4:20 pm — Jan 17 4:20 pm, Rendsburg, Weather by CustomWeather, © 2017

Note: Actual official high and low records may vary slightly from our data, if they occured in-between our weather recording intervals... More about our weather records

Advertising

Rendsburg Weather History for the Previous 24 Hours

Scroll right to see more
 ConditionsComfort  
Time TempWeatherWind HumidityBarometerVisibility
4:20 pm
Tue, Jan 17
32 °FBroken clouds.2 mph87%30.66 "HgN/A
3:20 pm34 °FPartly sunny.2 mph81%30.63 "Hg6 mi
2:20 pm34 °FBroken clouds.2 mph81%30.63 "Hg6 mi
1:20 pm32 °FBroken clouds.2 mph87%30.66 "Hg5 mi
12:20 pm32 °FBroken clouds.2 mph87%30.66 "Hg5 mi
11:20 am30 °FPartly sunny.2 mph80%30.63 "Hg5 mi
10:20 am27 °FPartly sunny.2 mph86%30.63 "Hg5 mi
9:20 am23 °FPartly sunny.2 mph93%30.60 "Hg5 mi
8:20 am21 °FPassing clouds.5 mph86%30.60 "Hg5 mi
7:20 am19 °FPassing clouds.1 mph86%30.60 "HgN/A
6:20 am18 °FPassing clouds.3 mph93%30.57 "HgN/A
5:20 am18 °FCold.2 mph93%30.57 "HgN/A
4:20 am19 °FCold.1 mph93%30.54 "HgN/A
3:20 am23 °FCold.1 mph86%30.54 "HgN/A
2:20 am25 °FCold.5 mph86%30.54 "HgN/A
1:20 am21 °FCold.3 mph93%30.51 "HgN/A
12:20 am21 °FCold.3 mph93%30.51 "HgN/A
11:20 pm
Mon, Jan 16
21 °FCold.7 mph93%30.51 "HgN/A
10:20 pm19 °FCold.6 mph93%30.48 "HgN/A
9:20 pm23 °FCold.5 mph86%30.48 "HgN/A
8:20 pm23 °FCold.7 mph86%30.45 "HgN/A
7:20 pm23 °FCold.6 mph86%30.42 "HgN/A
6:20 pm25 °FPassing clouds.2 mph86%30.42 "HgN/A
Weather by CustomWeather, © 2017

See weather overviewHow to use our weather pages